Snowfall_Accumulation
0.0 0.0 0.0 0.0 0.0 0.0 0.0 0.0 0.0 0.0 0.0 0.0 0.0 0.0 0.0 0.0 0.0 0.0 0.0 0.0 0.0 0.4 0.1 0.2 0.1 0.5 0.6 0.5 0.7 0.7 0.7 0.6 0.9 0.6 0.5 0.3 0.1 0.0 0.0 0.0 0.0 0.0 0.0
0.0 0.0 0.0 0.0 0.0 0.0 0.0 0.0 0.0 0.0 0.0 0.0 0.0 0.0 0.0 0.0 0.0 0.0 0.0 0.0 0.0 0.0 0.0 0.0 0.0 0.2 0.2 0.4 0.8 1.1 1.1 0.8 0.8 1.0 0.6 0.3 0.1 0.1 0.0 0.0 0.0 0.0 0.0
0.0 0.0 0.0 0.0 0.0 0.0 0.0 0.0 0.0 0.0 0.0 0.0 0.0 0.0 0.0 0.0 0.0 0.0 0.0 0.0 0.0 0.0 0.0 0.0 0.0 0.0 0.0 0.1 0.1 0.2 0.0 0.1 0.3 0.4 0.1 0.1 0.1 0.0 0.0 0.0 0.1 0.0 0.0
0.0 0.0 0.0 0.0 0.0 0.0 0.0 0.0 0.0 0.0 0.0 0.0 0.0 0.0 0.0 0.0 0.0 0.0 0.0 0.0 0.0 0.0 0.0 0.0 0.0 0.0 0.0 0.0 0.1 0.1 0.1 0.2 0.1 0.0 0.0 0.0 0.0 0.0 0.0 0.3 0.3 0.3 0.1
0.0 0.0 0.0 0.0 0.0 0.0 0.0 0.0 0.0 0.0 0.0 0.0 0.0 0.0 0.0 0.0 0.0 0.0 0.0 0.0 0.0 0.0 0.0 0.0 0.0 0.1 0.0 0.0 0.2 0.3 0.1 0.1 0.1 0.1 0.1 0.1 0.1 0.2 0.5 0.2 0.3 0.1 0.4
0.2 0.0 0.0 0.0 0.0 0.0 0.0 0.0 0.0 0.0 0.0 0.0 0.0 0.0 0.0 0.0 0.1 0.0 0.0 0.0 0.0 0.0 0.0 0.0 0.0 0.0 0.0 0.0 0.0 0.1 0.3 0.4 0.6 0.4 0.3 0.2 0.3 0.3 0.7 1.3 0.9 0.7 0.6
0.4 0.3 0.4 1.4 0.0 0.9 0.9 0.0 0.1 0.2 0.0 0.0 0.1 0.1 0.0 0.3 0.0 0.0 0.0 0.0 0.0 0.0 0.0 0.0 0.0 0.0 0.0 0.0 0.0 0.0 0.0 0.1 0.3 0.7 0.9 1.2 1.2 0.9 0.9 0.9 0.9 0.9 0.8
1.0 1.3 1.4 1.1 1.9 2.6 2.6 1.5 1.3 0.6 0.6 0.8 1.3 0.4 0.2 1.1 0.6 0.7 0.8 0.8 0.8 0.0 0.9 1.0 1.0 0.2 0.0 0.0 0.1 0.1 0.2 0.2 0.5 0.5 0.4 0.4 0.8 0.7 0.5 0.3 0.7 0.3 0.6
3.0 2.4 2.4 2.5 1.6 1.5 1.2 1.0 0.9 1.1 0.8 1.8 0.9 0.8 1.0 1.5 2.1 2.4 2.8 1.2 0.8 0.9 1.4 0.9 0.9 1.5 3.1 4.3 0.8 0.9 1.2 1.7 2.1 2.7 0.8 1.0 1.1 0.5 0.3 0.7 0.9 2.5 1.7
6.3 6.7 2.4 1.5 1.8 3.5 2.7 4.1 5.4 2.5 2.9 3.3 6.0 2.9 4.7 1.6 2.7 4.6 2.3 3.1 1.3 5.7 2.7 2.8 3.9 1.7 2.1 2.3 0.9 1.3 1.9 2.8 2.3 1.9 2.2 1.7 1.9 3.5 3.5 2.0 4.8 6.1 5.3
6.6 5.9 5.0 5.6 7.4 7.4 7.0 7.8 11.3 13.1 9.8 4.5 5.5 7.0 7.2 5.3 7.7 9.3 4.7 8.2 7.3 3.9 4.7 2.8 4.3 5.4 6.1 2.7 3.2 4.5 7.5 3.6 4.1 3.2 4.8 5.5 4.0 3.7 5.2 5.2 2.9 3.8 6.0
6.5 5.4 6.1 6.1 7.0 8.4 8.6 9.8 9.7 11.2 14.3 16.6 15.3 13.7 13.5 12.7 12.6 10.5 10.1 9.9 8.5 7.7 7.0 6.5 6.6 5.7 4.9 7.0 6.0 6.2 7.2 6.3 6.6 6.8 12.2 17.1 15.4 17.3 17.0 12.7 11.1 11.3 11.1
5.8 6.3 5.9 5.6 5.6 5.2 5.5 6.7 7.6 8.1 7.9 8.1 8.9 10.9 12.4 13.3 14.1 13.8 14.8 14.0 12.5 11.6 12.1 11.8 11.2 7.9 6.4 7.3 7.9 9.5 10.8 7.1 11.2 20.6 21.3 20.5 19.4 15.5 14.4 13.1 12.0 7.7 7.6
1.0 1.1 2.0 2.5 2.7 2.8 3.0 3.2 3.5 4.5 5.4 6.3 6.4 6.3 6.4 6.1 7.4 7.9 8.3 8.1 7.9 10.3 10.6 11.9 10.9 13.7 15.8 13.2 19.0 18.1 14.1 18.1 19.3 19.9 19.4 18.2 15.5 14.0 12.8 12.2 12.0 10.6 9.3
0.5 0.6 0.7 0.9 1.2 1.5 1.9 1.8 1.8 3.1 2.5 2.4 3.9 3.4 3.7 5.7 7.6 6.5 6.5 8.2 8.4 9.2 13.8 19.8 19.8 20.0 19.5 19.6 19.2 19.0 18.6 17.5 16.4 15.8 14.8 13.4 11.5 10.3 9.4 8.4 7.8 8.9 9.4
0.1 0.7 0.2 0.8 0.4 0.7 0.8 1.5 2.0 1.8 1.8 1.2 1.3 4.9 5.6 10.2 13.9 13.4 13.3 13.3 13.9 13.3 12.8 12.9 12.8 11.8 11.5 11.5 10.3 10.3 9.4 8.9 9.0 8.5 7.9 7.4 7.3 7.4 9.1 8.5 8.5 9.5 10.8
1.6 1.5 1.4 1.2 1.5 2.2 2.3 1.0 1.5 3.7 5.5 7.2 10.0 10.2 9.5 10.4 9.3 9.3 8.8 8.1 8.0 6.5 8.2 7.9 7.4 6.8 6.3 4.8 4.6 4.5 4.8 4.2 2.7 5.3 4.8 4.5 5.6 6.0 4.6 6.0 6.0 7.0 6.5
9.0 7.2 4.2 6.0 9.1 10.3 11.5 12.4 12.7 13.5 13.4 14.4 14.1 12.3 11.7 11.0 9.5 8.6 8.1 6.3 6.2 5.8 5.4 4.9 4.4 3.6 2.8 2.2 1.7 1.0 1.5 1.5 1.8 2.4 2.3 2.0 3.0 3.4 4.0 3.5 3.5 4.3 4.3
16.8 17.9 17.7 17.0 15.8 13.9 12.1 11.5 11.1 11.0 11.0 11.4 11.1 10.3 9.5 8.3 6.9 5.9 4.9 5.1 5.2 4.1 3.1 2.4 1.7 1.3 1.4 1.4 1.2 1.5 1.6 1.9 1.7 1.3 1.5 1.3 1.2 1.9 2.5 2.2 2.1 2.4 2.6
10.9 10.0 8.9 8.4 8.1 7.6 7.1 6.5 6.3 6.2 5.8 5.6 5.1 5.0 3.6 2.4 2.5 1.6 1.3 1.3 1.4 1.6 1.5 1.1 0.7 0.5 1.0 1.0 0.9 0.9 1.4 1.3 1.2 1.2 1.1 1.1 1.0 1.0 1.2 1.4 1.5 1.9 2.0
6.7 6.5 5.9 5.4 5.2 4.8 4.3 3.6 3.2 3.1 2.6 2.2 2.4 1.3 0.6 1.1 1.6 1.1 0.7 0.8 1.2 1.0 1.1 1.1 0.6 0.9 0.9 0.9 1.3 1.6 1.6 1.3 1.3 1.5 1.5 1.4 1.6 2.0 1.6 1.7 1.7 1.3 1.1
3.8 3.1 2.4 2.0 1.7 1.6 1.4 1.6 1.8 1.6 1.0 1.2 0.8 0.7 0.7 0.5 1.1 1.1 1.3 1.2 0.8 0.8 1.0 1.7 1.9 1.6 1.7 1.8 2.1 2.6 1.8 1.9 2.1 2.2 2.4 1.7 2.1 2.1 2.3 2.4 2.3 2.3 2.0
1.5 1.1 1.1 1.0 0.9 0.8 0.9 0.6 0.8 0.8 0.9 1.7 1.7 1.5 0.6 0.8 0.6 0.6 0.9 1.1 1.9 2.6 2.5 2.8 3.3 2.7 2.0 2.1 2.7 3.1 3.1 2.2 2.0 2.8 3.2 2.2 1.8 2.0 2.2 2.3 1.9 2.2 1.7
0.8 0.7 0.8 0.7 0.6 0.8 1.1 1.1 0.9 1.0 0.5 1.7 2.3 2.2 2.2 2.0 2.5 2.4 2.9 3.4 3.9 4.0 3.8 3.8 3.9 3.8 3.6 3.3 3.1 2.9 2.6 2.4 2.4 2.3 3.0 3.4 2.3 1.7 2.2 2.3 2.0 2.1 1.9
0.7 0.6 0.5 0.6 1.1 1.0 1.6 1.7 1.6 1.8 2.0 2.1 2.3 1.9 1.9 2.6 3.2 3.4 3.4 2.8 2.4 2.7 2.7 2.3 3.3 3.5 3.6 4.0 4.3 4.0 3.8 2.9 3.1 3.2 3.9 3.6 2.9 2.7 2.9 2.7 2.2 2.5 2.2
0.5 0.5 1.2 1.4 1.4 2.0 2.3 2.5 2.9 3.0 3.0 3.0 3.5 3.7 3.2 2.6 2.1 2.0 1.6 1.5 1.3 1.1 1.4 1.6 1.3 1.5 1.6 1.7 1.8 2.4 2.1 2.4 3.3 3.5 3.9 3.8 3.7 3.4 3.3 2.9 2.4 3.0 2.9